[[{"header":{"parameterUnit":"m.s-1","parameterCategory":1,"la1":30.2991,"la2":30.254,"lo1":-89.0895,"lo2":-89.0444,"dy":0.0017,"dx":0.0017,"nx":28,"ny":28,"refTime":"2023-09-03T21:00:00:Z","depth":0,"parameterNumber":2,"parameterNumberName":"U-component_of_WINDS"},"data":[0,0,0,0,0,0,0,0,0,0,0,0,0,0,0,0,0,0,0,0,0,0,0,0,0,0,0,0,0,0,0,0,0,0,0,0,0,0,0,0,0,0,0,0,0,0,0,0,0,0,0,0,0,0,0,0,0,0,-5.1925,-5.1926,0,-5.204,-5.2041,-5.2043,-5.1996,-5.1994,-5.1991,-5.1988,-5.2103,-5.2108,-5.2113,0,0,0,0,0,0,0,0,0,0,0,0,0,-5.166,-5.1665,-5.1924,-5.1926,-5.1927,-5.204,-5.2041,-5.2043,-5.1997,-5.1993,-5.199,-5.1987,-5.2101,-5.2107,-5.2114,0,0,0,0,0,0,0,0,0,0,0,0,0,-5.1775,-5.1667,-5.1924,-5.1918,-5.1919,-5.204,-5.2042,-5.2043,-5.1997,-5.1993,-5.1989,-5.1986,-5.2099,-5.2107,-5.2115,-5.2248,0,0,-5.214,-5.2144,0,0,0,0,0,0,0,0,-5.1769,-5.1785,-5.1917,-5.1919,-5.1919,-5.2,-5.199,-5.2112,-5.1998,-5.1967,-5.1988,-5.1984,-5.2071,-5.2082,-5.2112,-5.2253,-5.2258,-5.2141,-5.2146,-5.215,-5.2152,0,0,0,0,0,0,0,-5.1761,-5.178,-5.197,-5.1919,-5.1921,-5.1908,-5.192,-5.2013,-5.2041,-5.197,-5.1967,-5.1981,-5.2071,-5.2104,-5.2114,-5.226,-5.2141,-5.2148,-5.2153,-5.2157,-5.2514,-5.2518,0,0,0,0,0,0,-5.1753,-5.1773,-5.1966,-5.1973,-5.1833,-5.1916,-5.1929,-5.1978,-5.2039,-5.2045,-5.1985,-5.1979,-5.2092,-5.2105,-5.2118,-5.2275,-5.215,-5.2158,-5.2162,-5.2509,-5.2515,-5.2519,0,0,0,0,0,0,-5.1747,-5.1771,-5.1962,-5.1873,-5.1896,-5.1925,-5.198,-5.1982,-5.2015,-5.2051,-5.2055,-5.2013,-5.2089,-5.2107,-5.2216,-5.2279,-5.2161,-5.2169,-5.2504,-5.2511,-5.2517,-5.2593,0,0,0,0,0,0,-5.174,-5.1769,-5.182,-5.1874,-5.1901,-5.2058,-5.1984,-5.1988,-5.203,-5.2024,-5.2079,-5.2084,-5.2087,-5.2204,-5.2224,-5.2288,-5.2175,-5.2498,-5.2507,-5.2515,-5.2584,-5.2601,-5.2615,0,0,0,0,0,-5.1731,-5.1837,-5.1823,-5.1847,-5.1966,-5.2062,-5.2077,-5.208,-5.2036,-5.2087,-5.211,-5.2082,-5.227,-5.2215,-5.2238,-5.2305,-5.2494,-5.2504,-5.2514,-5.2577,-5.2598,-5.2615,0,0,0,0,0,0,-5.1788,-5.1843,-5.1829,-5.1956,-5.2005,-5.2054,-5.2118,-5.2102,-5.2163,-5.2154,-5.2154,-5.2167,-5.2279,-5.2304,-5.2242,-5.2437,-5.2375,-5.239,-5.2415,-5.2435,-5.245,-5.244,-5.2182,0,0,0,0,0,-5.1816,-5.189,-5.1934,-5.2042,-5.2067,-5.2089,-5.2131,-5.2129,-5.2179,-5.2199,-5.223,-5.2278,-5.2348,-5.2393,-5.246,-5.259,-5.2599,-5.2647,-5.2663,-5.2675,-5.2687,-5.2755,-5.2776,-5.2552,-5.2552,-5.2552,0,0,-5.1872,-5.1912,-5.1959,-5.2054,-5.2092,-5.2167,-5.2107,-5.2189,-5.2245,-5.2211,-5.2315,-5.2341,-5.2395,-5.2514,-5.2568,-5.2538,-5.2751,-5.2688,-5.2698,-5.2702,-5.2767,-5.2788,-5.2807,-5.2559,-5.2558,-5.2557,0,0,-5.2014,-5.2053,-5.2146,-5.2185,-5.2244,-5.2258,-5.228,-5.2333,-5.2348,-5.2454,-5.243,-5.2496,-5.2616,-5.2655,-5.2691,-5.2849,-5.2825,-5.2871,-5.2949,-5.3016,-5.3034,-5.3049,-5.3102,-5.3122,-5.2884,-5.2884,-5.2884,0,-5.2076,-5.2191,-5.2195,-5.228,-5.2321,-5.2297,-5.239,-5.2428,-5.2504,-5.2533,-5.2499,-5.265,-5.2685,-5.2812,-5.2851,-5.2882,-5.2905,-5.2862,-5.3031,-5.3047,-5.3061,-5.3112,-5.3132,-5.2889,-5.2888,-5.2888,-5.2887,0,-5.2263,-5.2343,-5.2411,-5.2486,-5.2536,-5.2625,-5.2641,-5.2691,-5.2686,-5.2703,-5.281,-5.2852,-5.2925,-5.2956,-5.2952,-5.3083,-5.3062,-5.3031,-5.2968,-5.3087,-5.3135,-5.3154,-5.2896,-5.2894,-5.2892,-5.2891,0,0,-5.244,-5.2519,-5.2543,-5.2576,-5.264,-5.2701,-5.2788,-5.2861,-5.2903,-5.2958,-5.3029,-5.3132,-5.3103,-5.3144,-5.3144,-5.3203,-5.3322,-5.3163,-5.3165,-5.3188,-5.3466,-5.3487,-5.3509,-5.3309,-5.3313,-5.3316,-5.346,0,-5.2584,-5.2737,-5.2744,-5.2883,-5.2955,-5.2934,-5.301,-5.3057,-5.3076,-5.3139,-5.316,-5.3232,-5.319,-5.3214,-5.3272,-5.3295,-5.3377,-5.3286,-5.3372,-5.3375,-5.3355,-5.3535,-5.3557,-5.3691,-5.3479,-5.3483,-5.3485,0,-5.2771,-5.2832,-5.2978,-5.3031,-5.3061,-5.3129,-5.3196,-5.3258,-5.3311,-5.332,-5.3367,-5.3358,-5.3446,-5.3385,-5.3504,-5.3441,-5.3478,-5.3495,-5.35,-5.3505,-5.3434,-5.354,-5.3734,-5.3752,-5.3515,-5.3512,-5.351,0,-5.2881,-5.3,-5.3102,-5.3132,-5.3197,-5.3245,-5.3274,-5.3323,-5.3366,-5.3425,-5.3453,-5.3522,-5.3558,-5.3611,-5.362,-5.3575,-5.374,-5.3679,-5.3747,-5.3747,-5.3779,-5.3776,-5.3977,-5.381,-5.381,-5.3809,-5.3809,0,-5.3037,-5.3127,-5.3152,-5.3215,-5.3314,-5.3322,-5.3419,-5.3445,-5.3489,-5.3555,-5.3542,-5.3604,-5.3616,-5.368,-5.3689,-5.3785,-5.3803,-5.3811,-5.3811,-5.381,-5.3808,-5.383,-5.3819,-5.3815,-5.3814,-5.3813,-5.3812,0,-5.3175,-5.3196,-5.3305,-5.3359,-5.3374,-5.3445,-5.349,-5.3549,-5.3568,-5.3652,-5.3672,-5.3701,-5.3776,-5.3793,-5.3882,-5.3888,-5.4001,-5.3994,-5.3983,-5.3981,-5.4047,-5.4039,-5.4266,-5.4295,-5.4113,-5.4114,-5.4116,0,-5.3271,-5.334,-5.3401,-5.3445,-5.3476,-5.3547,-5.3592,-5.3603,-5.3649,-5.3715,-5.3766,-5.384,-5.3899,-5.402,-5.4048,-5.4116,-5.4109,-5.4184,-5.4118,-5.4114,-5.4105,-5.4099,-5.4105,-5.4194,-5.4196,-5.4198,-5.4199,0,-5.3439,-5.3447,-5.3512,-5.3581,-5.3635,-5.369,-5.3742,-5.3778,-5.3796,-5.3849,-5.3926,-5.3973,-5.4065,-5.4137,-5.4206,-5.4234,-5.4219,-5.4221,-5.4239,-5.4236,-5.4225,-5.4228,-5.4012,-5.4214,-5.4213,-5.4211,-5.4211,-5.421,-5.3557,-5.3616,-5.3668,-5.374,-5.3781,-5.383,-5.3888,-5.3915,-5.398,-5.4056,-5.4059,-5.4142,-5.4193,-5.4283,-5.4317,-5.4381,-5.4357,-5.4386,-5.4392,-5.4398,-5.4402,-5.4219,-5.4394,-5.4394,-5.4393,-5.4393,-5.4393,0,-5.372,-5.3754,-5.3821,-5.3894,-5.3951,-5.3936,-5.3993,-5.4041,-5.4115,-5.4164,-5.4223,-5.4311,-5.4382,-5.4417,-5.4487,-5.4532,-5.4527,-5.4549,-5.4544,-5.455,-5.4421,-5.4396,-5.4552,-5.4552,-5.4552,-5.4552,-5.4552,-5.4552,-5.3812,-5.391,-5.3924,-5.4042,-5.4074,-5.4157,-5.419,-5.4235,-5.4274,-5.4373,-5.4432,-5.4456,-5.4499,-5.4572,-5.4636,-5.4644,-5.4669,-5.4694,-5.4699,-5.4576,-5.456,-5.4544,-5.452,-5.4701,-5.4701,-5.4823,-5.4824,-5.4825]},{"header":{"parameterUnit":"m.s-1","parameterCategory":1,"la1":30.2991,"la2":30.254,"lo1":-89.0895,"lo2":-89.0444,"dy":0.0017,"dx":0.0017,"nx":28,"ny":28,"refTime":"2023-09-03T21:00:00:Z","depth":0,"parameterNumber":3,"parameterNumberName":"V-component_of_WINDS"},"data":[0,0,0,0,0,0,0,0,0,0,0,0,0,0,0,0,0,0,0,0,0,0,0,0,0,0,0,0,0,0,0,0,0,0,0,0,0,0,0,0,0,0,0,0,0,0,0,0,0,0,0,0,0,0,0,0,0,0,2.5393,2.5394,0,2.5422,2.5422,2.5422,2.5341,2.5339,2.5336,2.5334,2.5361,2.5364,2.5367,0,0,0,0,0,0,0,0,0,0,0,0,0,2.5268,2.5271,2.5393,2.5394,2.5394,2.5422,2.5422,2.5423,2.5342,2.5339,2.5336,2.5333,2.536,2.5364,2.5367,0,0,0,0,0,0,0,0,0,0,0,0,0,2.5312,2.5272,2.5393,2.5357,2.5354,2.5422,2.5422,2.5423,2.5342,2.5339,2.5335,2.5331,2.5359,2.5363,2.5368,2.5471,0,0,2.5382,2.5384,0,0,0,0,0,0,0,0,2.531,2.5317,2.5362,2.536,2.5357,2.5374,2.5388,2.5439,2.5343,2.5347,2.5334,2.533,2.5368,2.5372,2.5385,2.5472,2.5473,2.5382,2.5385,2.5387,2.5388,0,0,0,0,0,0,0,2.5307,2.5315,2.5405,2.5363,2.536,2.5339,2.5341,2.5397,2.5378,2.5346,2.5341,2.5345,2.5366,2.5381,2.5385,2.5474,2.5382,2.5386,2.5389,2.5391,2.5647,2.5651,0,0,0,0,0,0,2.5309,2.5313,2.5404,2.5405,2.5324,2.5345,2.5347,2.5372,2.5377,2.5375,2.5348,2.5341,2.5375,2.538,2.5386,2.5507,2.5387,2.5391,2.5394,2.5643,2.5648,2.5652,0,0,0,0,0,0,2.5306,2.5317,2.5402,2.5358,2.5367,2.5351,2.538,2.5375,2.539,2.5379,2.5375,2.5367,2.5372,2.538,2.5451,2.5507,2.5393,2.5397,2.5638,2.5644,2.565,2.575,0,0,0,0,0,0,2.5303,2.5317,2.5356,2.5359,2.537,2.5467,2.5383,2.5378,2.5398,2.5389,2.5396,2.5393,2.537,2.5444,2.5455,2.5511,2.5401,2.5633,2.5641,2.5648,2.5741,2.5758,2.5773,0,0,0,0,0,2.5299,2.5383,2.5359,2.537,2.5418,2.5471,2.5476,2.5449,2.5403,2.5442,2.5435,2.5393,2.5499,2.5452,2.5464,2.5522,2.5629,2.5639,2.5647,2.5734,2.5755,2.5773,0,0,0,0,0,0,2.5385,2.5382,2.5356,2.5443,2.5458,2.5457,2.5505,2.5472,2.5499,2.549,2.5454,2.5456,2.5534,2.5535,2.5483,2.5622,2.5556,2.5568,2.5618,2.5638,2.5654,2.5651,2.5405,0,0,0,0,0,2.5415,2.5458,2.5453,2.5531,2.5539,2.5522,2.5543,2.5521,2.5534,2.554,2.5538,2.5552,2.5589,2.5614,2.5647,2.5742,2.5742,2.5787,2.5803,2.5816,2.5827,2.5877,2.5897,2.5682,2.5682,2.5682,0,0,2.5476,2.548,2.5509,2.5548,2.5557,2.5602,2.5527,2.5578,2.5611,2.5547,2.5614,2.5614,2.5627,2.5711,2.5748,2.5714,2.5886,2.5828,2.5839,2.5842,2.5888,2.5909,2.5927,2.5688,2.5687,2.5686,0,0,2.561,2.5617,2.5683,2.5694,2.5708,2.5696,2.5712,2.5717,2.5714,2.5781,2.5735,2.5773,2.5837,2.5849,2.5863,2.6004,2.5966,2.6016,2.6098,2.6148,2.6164,2.6179,2.6229,2.6247,2.6026,2.6026,2.6027,0,2.5683,2.575,2.572,2.5775,2.5793,2.574,2.5806,2.5817,2.5842,2.5856,2.5819,2.5898,2.5904,2.5989,2.6024,2.6037,2.6054,2.6014,2.6165,2.6179,2.6193,2.6239,2.6258,2.6032,2.6032,2.6031,2.603,0,2.5839,2.5886,2.5937,2.5964,2.5988,2.6048,2.6028,2.6056,2.6032,2.6024,2.6093,2.6098,2.6131,2.615,2.6127,2.6233,2.6212,2.6171,2.6103,2.6219,2.6263,2.6281,2.6041,2.6039,2.6037,2.6035,0,0,2.6027,2.6037,2.6056,2.6068,2.6081,2.6117,2.6174,2.6208,2.6233,2.6252,2.6299,2.6356,2.6318,2.6334,2.6312,2.6356,2.6466,2.6309,2.6308,2.6337,2.6583,2.6614,2.6635,2.6442,2.6445,2.6448,2.6582,0,2.6158,2.6257,2.6234,2.6332,2.6375,2.6325,2.6375,2.6389,2.6383,2.6419,2.6412,2.6452,2.6399,2.6409,2.645,2.6444,2.6515,2.6434,2.6485,2.6487,2.6482,2.6658,2.669,2.6816,2.6599,2.6602,2.6604,0,2.6324,2.6351,2.6454,2.6461,2.6478,2.6524,2.6553,2.6588,2.6602,2.6595,2.6615,2.6584,2.6641,2.6575,2.6653,2.6599,2.6618,2.6619,2.6623,2.6625,2.6552,2.6664,2.6855,2.6874,2.663,2.6628,2.6626,0,2.645,2.6512,2.6581,2.6593,2.6603,2.6636,2.6642,2.6653,2.6675,2.67,2.6714,2.6746,2.6763,2.6789,2.6768,2.6722,2.6849,2.6781,2.6844,2.6845,2.6872,2.687,2.7068,2.6887,2.6886,2.6886,2.6886,0,2.6598,2.6663,2.6638,2.6681,2.6752,2.6724,2.6795,2.6795,2.6806,2.6847,2.6807,2.6846,2.6817,2.6854,2.6839,2.6905,2.6914,2.6909,2.6904,2.6912,2.6913,2.6923,2.6914,2.6891,2.689,2.6889,2.6888,0,2.675,2.6736,2.6809,2.6813,2.6815,2.6868,2.6871,2.6911,2.6903,2.6956,2.6967,2.6954,2.6996,2.6978,2.7023,2.7012,2.7098,2.7081,2.7093,2.7088,2.7152,2.7146,2.7363,2.739,2.7192,2.7194,2.7195,0,2.6845,2.6894,2.6904,2.6929,2.6938,2.698,2.7002,2.6977,2.7002,2.7023,2.7061,2.7099,2.7129,2.7198,2.7193,2.7227,2.721,2.7284,2.7215,2.7222,2.7211,2.7208,2.7212,2.7297,2.73,2.7302,2.7303,0,2.7016,2.7007,2.7041,2.7074,2.7102,2.7127,2.7147,2.717,2.7146,2.7177,2.722,2.7243,2.7289,2.7327,2.7358,2.7363,2.7329,2.7325,2.7341,2.735,2.7354,2.7352,2.713,2.732,2.7318,2.7317,2.7316,2.7315,2.7141,2.7183,2.7196,2.7236,2.725,2.727,2.7308,2.7305,2.7341,2.7377,2.736,2.741,2.7424,2.7461,2.7471,2.751,2.7481,2.7504,2.751,2.7516,2.7524,2.7349,2.7515,2.7515,2.7514,2.7514,2.7513,0,2.7309,2.7316,2.7353,2.7384,2.7416,2.7383,2.7404,2.7432,2.7477,2.7493,2.7524,2.7574,2.7612,2.761,2.7645,2.7676,2.7662,2.7686,2.7683,2.7685,2.7549,2.7531,2.7697,2.7697,2.7697,2.7697,2.7697,2.7697,2.74,2.7468,2.7461,2.7536,2.7542,2.7591,2.7606,2.7625,2.7638,2.7695,2.7727,2.7726,2.7735,2.7771,2.7804,2.7803,2.7817,2.7848,2.784,2.7713,2.7694,2.7677,2.766,2.7851,2.7851,2.7973,2.7975,2.7975]}]]